FW7382 Weather Reports


Display with metric or nautical units.
time (UTC)temp
F
wind
direction
speed
MPH
gust
MPH
rain 1hr
in
rain 24hr
in
rain mn
in
humidity
%
barometer
mb
20260506174017 50 0.0 0.0 0.06 0.17 0.17 90 1009.1
20260506173057 50 0.0 0.0 0.06 0.17 0.16 90 1008.9
20260506172017 50 0.0 0.0 0.06 0.16 0.15 90 1008.8
20260506171017 50 0.0 0.0 0.05 0.14 0.13 90 1008.7
20260506170057 50 0.0 0.0 0.05 0.13 0.13 90 1008.6
20260506165037 50 0.0 0.0 0.05 0.13 0.12 90 1008.6
20260506164017 50 0.0 0.0 0.05 0.12 0.11 90 1008.6
20260506163100 50 0.0 0.0 0.06 0.11 0.10 90 1008.6
20260506162017 50 0.0 0.0 0.05 0.09 0.09 89 1008.6
20260506161037 50 0.0 0.0 0.05 0.09 0.09 90 1008.6
20260506160116 50 0.0 0.0 0.04 0.09 0.08 89 1008.6
20260506155016 50 0.0 0.0 0.03 0.08 0.07 89 1008.6
20260506154057 51 0.0 0.0 0.02 0.07 0.06 88 1008.5
20260506153017 51 0.0 0.0 0.01 0.06 0.05 86 1008.4
20260506152117 51 0.0 0.0 0.00 0.05 0.04 85 1008.2
20260506151017 52 0.0 0.0 0.00 0.05 0.04 86 1008.3
20260506150016 52 0.0 0.0 0.01 0.05 0.04 87 1008.2
20260506145120 52 0.0 0.0 0.01 0.05 0.04 87 1008.2
20260506144200 52 0.0 0.0 0.01 0.06 0.04 87 1008.1
20260506143120 52 0.0 0.0 0.01 0.07 0.04 86 1008.1
20260506142057 52 0.0 0.0 0.02 0.08 0.04 86 1008.1
20260506141137 51 0.0 0.0 0.02 0.09 0.04 86 1008.1
20260506140036 51 0.0 0.0 0.01 0.08 0.03 87 1008.0
20260506135016 51 0.0 0.0 0.02 0.08 0.03 87 1008.1
20260506134017 52 0.0 0.0 0.02 0.08 0.03 88 1008.0
20260506133037 52 0.0 0.0 0.02 0.08 0.03 86 1008.0
20260506132036 52 0.0 0.0 0.02 0.07 0.02 88 1008.0
20260506131036 53 0.0 0.0 0.02 0.07 0.02 89 1008.0
20260506130016 53 0.0 0.0 0.02 0.07 0.02 89 1007.8
20260506125016 53 0.0 0.0 0.00 0.06 0.01 89 1007.6
20260506124100 53 0.0 0.0 0.00 0.06 0.01 89 1007.7
20260506123016 54 0.0 0.0 0.01 0.06 0.01 88 1007.4
20260506122016 55 0.0 0.0 0.01 0.06 0.01 86 1007.5
20260506121036 55 0.0 0.0 0.01 0.06 0.01 86 1007.3
20260506120056 56 0.0 0.0 0.01 0.06 0.01 85 1007.2
20260506115016 56 0.0 0.0 0.01 0.06 0.01 85 1007.3
20260506114016 56 0.0 0.0 0.01 0.06 0.01 83 1007.0
20260506113036 57 0.0 0.0 0.00 0.06 0.00 82 1007.0
20260506112016 57 0.0 0.0 0.00 0.06 0.00 80 1006.9
20260506111058 57 0.0 0.0 0.00 0.06 0.00 80 1006.9
20260506110036 57 0.0 0.0 0.00 0.06 0.00 80 1006.9
20260506105016 57 0.0 0.0 0.00 0.06 0.00 80 1006.9
20260506104016 57 0.0 0.0 0.00 0.06 0.00 79 1006.8
20260506103036 58 0.0 0.0 0.00 0.06 0.00 78 1006.8
20260506102017 58 0.0 0.0 0.00 0.06 0.00 77 1006.8
20260506101059 58 0.0 0.0 0.00 0.06 0.00 76 1006.8
20260506100139 58 0.0 0.0 0.00 0.06 0.00 76 1006.8
20260506095120 57 0.0 0.0 0.00 0.06 0.00 77 1006.6
20260506094016 57 0.0 0.0 0.00 0.06 0.00 77 1006.7
20260506093056 57 0.0 0.0 0.00 0.06 0.00 77 1006.7
20260506092016 57 0.0 0.0 0.00 0.06 0.00 77 1006.7
20260506091036 57 0.0 0.0 0.00 0.06 0.00 76 1006.8
20260506090016 57 0.0 0.0 0.00 0.06 0.00 77 1006.6
20260506085036 57 0.0 0.0 0.00 0.06 0.00 77 1006.6
20260506084016 57 0.0 0.0 0.00 0.06 0.00 78 1006.5
20260506083059 57 0.0 0.0 0.00 0.06 0.00 77 1006.4
20260506082120 57 0.0 0.0 0.00 0.06 0.00 77 1006.4
20260506081016 57 0.0 0.0 0.00 0.06 0.00 78 1006.3
20260506073016 56 0.0 0.0 0.00 0.06 0.00 80 1006.4
20260506071016 55 0.0 0.0 0.00 0.06 0.00 81 1006.3
20260506062016 54 0.0 0.0 0.00 0.06 0.00 83 1006.5
20260506061016 54 0.0 0.0 0.00 0.06 0.00 82 1006.5
20260506051036 52 0.0 0.0 0.00 0.06 0.00 86 1006.5
20260506050116 52 0.0 0.0 0.00 0.06 0.00 85 1006.6
20260506045016 52 0.0 0.0 0.00 0.06 0.00 85 1006.7
20260506044015 52 0.0 0.0 0.00 0.06 0.00 84 1006.8
20260506043056 53 0.0 0.0 0.00 0.06 0.00 84 1006.8
20260506042036 53 0.0 0.0 0.00 0.06 0.00 83 1006.8
20260506041036 53 0.0 0.0 0.00 0.06 0.00 82 1006.9
20260506040015 54 0.0 0.0 0.00 0.06 0.00 82 1007.0
20260506035016 54 0.0 0.0 0.00 0.06 0.00 81 1007.2
20260506034036 54 0.0 0.0 0.00 0.06 0.00 80 1007.0
20260506033059 55 0.0 0.0 0.00 0.06 0.00 80 1007.1
20260506032036 54 0.0 0.0 0.00 0.06 0.00 79 1007.1
20260506031119 55 0.0 0.0 0.00 0.06 0.00 79 1007.0
20260506030035 55 0.0 0.0 0.00 0.06 0.00 79 1007.2
20260506025015 55 0.0 0.0 0.00 0.06 0.00 78 1007.4
20260506024138 55 0.0 0.0 0.00 0.06 0.00 78 1007.6
20260506023015 55 0.0 0.0 0.00 0.06 0.00 77 1007.8
20260506022015 55 0.0 0.0 0.00 0.06 0.00 76 1008.0
20260506021015 56 0.0 0.0 0.00 0.06 0.00 77 1007.9
20260506020015 56 0.0 0.0 0.00 0.06 0.00 76 1008.2
20260506015017 56 0.0 0.0 0.00 0.06 0.00 75 1008.3
20260506014015 56 0.0 0.0 0.00 0.06 0.00 74 1008.4
20260506013035 55 0.0 0.0 0.00 0.06 0.00 75 1008.3
20260506012035 55 0.0 0.0 0.00 0.06 0.00 77 1008.3
20260506011036 55 0.0 0.0 0.00 0.06 0.00 76 1008.3
20260506010035 55 0.0 0.0 0.00 0.06 0.00 76 1008.2
20260506005015 54 0.0 0.0 0.00 0.06 0.00 79 1008.2
20260506004159 54 0.0 0.0 0.00 0.06 0.00 80 1008.1
20260506003015 55 0.0 0.0 0.00 0.06 0.00 77 1008.1
20260506002015 55 0.0 0.0 0.00 0.06 0.00 77 1008.5
20260506001015 55 0.0 0.0 0.00 0.06 0.00 76 1008.4
20260506000015 56 0.0 0.0 0.00 0.06 0.06 76 1008.7
20260505235057 55 0.0 0.0 0.00 0.06 0.06 78 1008.8
20260505234016 54 0.0 0.0 0.00 0.06 0.06 83 1008.7
20260505233016 54 0.0 0.0 0.00 0.06 0.06 82 1008.8
20260505232036 55 0.0 0.0 0.00 0.06 0.06 81 1008.8
20260505231016 54 0.0 0.0 0.00 0.06 0.06 80 1008.9
20260505230016 54 0.0 0.0 0.00 0.06 0.06 83 1008.9
20260505225016 54 0.0 0.0 0.00 0.06 0.06 82 1009.0
20260505224056 54 0.0 0.0 0.00 0.06 0.06 82 1009.1
20260505223036 54 0.0 0.0 0.00 0.06 0.06 83 1009.1
20260505222016 54 0.0 0.0 0.00 0.06 0.06 83 1009.1
20260505221016 54 0.0 0.0 0.00 0.06 0.06 83 1009.1
20260505220119 55 0.0 0.0 0.00 0.06 0.06 82 1009.0
20260505215016 54 0.0 0.0 0.00 0.06 0.06 82 1009.1
20260505214016 54 0.0 0.0 0.00 0.06 0.06 84 1009.1
20260505213056 54 0.0 0.0 0.00 0.06 0.06 84 1009.1
20260505212016 54 0.0 0.0 0.00 0.06 0.06 85 1009.1
20260505211120 54 0.0 0.0 0.00 0.06 0.06 85 1009.2
20260505210016 55 0.0 0.0 0.00 0.06 0.06 84 1009.2
20260505205036 56 0.0 0.0 0.00 0.06 0.06 84 1009.4
20260505204016 56 0.0 0.0 0.00 0.06 0.06 85 1009.5
20260505203056 56 0.0 0.0 0.00 0.07 0.06 85 1009.5
20260505202016 56 0.0 0.0 0.00 0.07 0.06 85 1009.2
20260505201059 56 0.0 0.0 0.00 0.07 0.06 85 1009.2
20260505200039 56 0.0 0.0 0.00 0.07 0.06 84 1009.1
20260505195039 55 0.0 0.0 0.00 0.07 0.06 87 1008.9
20260505194019 55 0.0 0.0 0.00 0.07 0.06 87 1008.8
20260505193039 55 0.0 0.0 0.00 0.07 0.06 87 1008.7
20260505192016 55 0.0 0.0 0.00 0.07 0.06 86 1008.6
20260505191016 55 0.0 0.0 0.00 0.07 0.06 86 1008.5
20260505190016 56 0.0 0.0 0.01 0.07 0.06 85 1008.4
20260505185016 56 0.0 0.0 0.01 0.07 0.06 84 1008.3
20260505184016 56 0.0 0.0 0.01 0.07 0.06 85 1008.1
20260505183016 57 0.0 0.0 0.01 0.07 0.06 86 1008.2
20260505182036 57 0.0 0.0 0.01 0.07 0.06 85 1008.2
20260505181018 58 0.0 0.0 0.01 0.07 0.06 83 1008.5
20260505180016 59 0.0 0.0 0.00 0.06 0.06 81 1008.5
20260505175056 59 0.0 0.0 0.00 0.06 0.06 79 1008.1